Regional Weather Roundup
Issued by NWS Upton, NY

Current Version | Previous Version | Text Only | Print | Product List | Glossary On
Versions: 1 2 3 4 5 6 7 8 9 10 11 12 13 14 15 16 17 18 19 20 21 22 23 24 25 26 27 28 29 30
000 ASUS41 KOKX 260604 RWROKX REGIONAL WEATHER ROUNDUP NATIONAL WEATHER SERVICE NEW YORK NY 200 AM EDT FRI AUG 26 2016 NOTE: "FAIR" INDICATES FEW OR NO CLOUDS BELOW 12,000 FEET WITH NO SIGNIFICANT WEATHER AND/OR OBSTRUCTIONS TO VISIBILITY. NYZ071-072-176-178-NJZ106-104-260700- NEW YORK CITY METRO AREA CITY SKY/WX TMP DP RH WIND PRES REMARKS Central Park N/A 77 70 78 MISG N/A LaGuardia APRT FAIR 80 71 74 S7 29.97F Kennedy INTL FAIR 75 72 90 S8 29.99F Newark/Liberty FAIR 77 71 82 SW7 29.97F Bronx Bot Gard N/A 79 70 73 SW3 29.99F Wall St Helipt FAIR 79 72 78 SW5 29.98F Teterboro FAIR 76 70 82 S5 29.96F $$ NYZ177-179-078>081-260700- LONG ISLAND NEW YORK CITY SKY/WX TMP DP RH WIND PRES REMARKS Farmingdale FAIR 75 69 81 SW7 29.99F MacArthur/ISP FAIR 75 71 87 SW8 29.98F Shirley FAIR 74 71 91 S7 30.00F Riverhead NOT AVBL Westhampton FAIR 73 69 87 SW7 30.01F Southampton N/A 72 70 94 SW3 29.96F Bridgehampton N/A 73 70 88 S1 29.99F East Hampton MOCLDY 73 70 89 SW7 29.99F Montauk N/A 74 71 91 SW8 30.01S $$ NYZ052-065-067-260700- HUDSON VALLEY CITY SKY/WX TMP DP RH WIND PRES REMARKS White Plains FAIR 76 70 82 VRB5 29.98F Newburgh PTCLDY 73 72 94 CALM 29.99F Montgomery FAIR 69 68 96 CALM 29.96F FOG Poughkeepsie MOCLDY 72 70 93 CALM 29.95F Albany FAIR 72 68 87 S9 29.93F $$ NJZ001-105-106-008-010-013-015-019>022-104-260700- NEW JERSEY CITY SKY/WX TMP DP RH WIND PRES REMARKS Newark/Liberty FAIR 77 71 82 SW7 29.97F Teterboro FAIR 76 70 82 S5 29.96F Caldwell FAIR 75 71 87 CALM 29.98F Morristown FAIR 68 68 100 CALM 29.98F FOG Somerville FOG 70 68 93 CALM 29.97F VSB 1/2 Linden NOT AVBL Sussex MOCLDY 69 69 100 CALM 29.98F FOG Abdover N/A 70 69 97 CALM 30.00F Trenton FAIR 74 70 87 SW3 29.99F Millville FAIR 74 71 91 VRB3 30.02F Atlantic City FAIR 74 68 81 S6 30.01F Wrightstown FAIR 71 68 92 SW3 29.98F Toms River FAIR 73 32 22 S6 30.01F Belmar FAIR 73 68 84 S7 30.01F $$ PAZ047>061-062-071-260700- EASTERN PENNSYLVANIA CITY SKY/WX TMP DP RH WIND PRES REMARKS Philadelphia FAIR 77 70 79 SW8 30.00F Allentown FAIR 71 68 90 CALM 29.99F Scranton FAIR 71 70 96 CALM 29.99S FOG $$ CTZ002-004>006-009-010-012-RIZ004-006-007-MAZ004-011-015-260700- SOUTHERN NEW ENGLAND IN CT CITY SKY/WX TMP DP RH WIND PRES REMARKS Bradley INTL FAIR 72 67 84 S7 29.97F Hartford FAIR 74 69 85 CALM 29.96F Danbury MOCLDY 70 69 97 W5 29.99F Wtrbury/Oxford N/A 72 66 83 CALM 30.01S Bridgeport FAIR 77 71 82 SW7 29.97F Meriden FAIR 73 68 84 CALM 29.97F New Haven FAIR 75 70 84 SW6 29.98F Chester NOT AVBL Groton MOCLDY 76 70 82 SW7 29.98F Wilimantic MOCLDY 73 70 90 CALM 29.99S IN RI CITY SKY/WX TMP DP RH WIND PRES REMARKS Providence CLOUDY 75 69 81 SW5 29.99S Block Island CLOUDY 74 71 91 SW13 30.00F Westerly CLOUDY 75 69 81 SW6 30.00F IN MA CITY SKY/WX TMP DP RH WIND PRES REMARKS Boston CLOUDY 73 67 81 S7 29.96F Worcester FAIR 68 64 87 SW10 30.00S Westfield FAIR 70 66 87 CALM 29.96F Provincetown MOCLDY 71 68 90 S9 29.99F Nantucket FAIR 71 69 93 S12 30.02F $$ ANZ330-335-338-340-345-350-353-355-260700- COASTAL MARINE OBSERVATIONS STATION/POSITION TIME SKY/WX TEMP WIND PRES VSBY WAVE AIR SEA DIR/SP/G HT/PER (UTC) (F) (DEG/KT/KT) (MB) (MI) (FT/S) NY HARB ENTRANCE 0450 75 72 220/ 10/ 12 1015.7 3/ 9 20S FIRE ISLAND 0450 76 74 220/ 17/ 23 1015.8 4/ 5 GREAT SOUTH BAY 0500 76 79 250/ 14/ 16 N/A 23 SSW MONTAUK P 0450 76 74 220/ 16/ 19 1016.4 4/ 5 15 E BARNEGAT LI 0500 75 N/A 4/ 5 HUDSON CANYON 0450 78 78 1016.9 3/ 4 KINGS POINT 0500 76 76 1015.2 EXECUTION ROCKS 0500 76 190/ 8/ 8 N/A CENTRAL LI SOUND 0500 76 75 210/ 12/ 14 N/A 1/ 3 EASTERN LI SOUND 0500 74 70 230/ 10/ 14 N/A ROBBINS REEF 0500 78 210/ 6/ 8 1014.9 $$ >>>>>>>>>>>>>>>>>>>>>>>>>>>> KEY <<<<<<<<<<<<<<<<<<<<<<<<<<< > < > SKY/WX - Sky Condition/Present Weather < > TMP - Temperature in Fahrenheit < > DP - Dew Point in Fahrenheit < > RH - Relative Humidity in Percent < > WIND - Direction (from) and Speed in MPH < > PRES - Mean Sea Level Pressure (inches of Hg) < > WCI - Wind Chill Index < > VSB - VISIBILITY IN MILES < > HX - HEAT INDEX < > TC - TEMPERATURE IN CELSIUS < > VRB - VARIABLE WIND DIRECTION < > < >>>>>>>>>>>>>>>>>>>>>>>>>>>> KEY <<<<<<<<<<<<<<<<<<<<<<<<<<<

USA.gov is the U.S. government's official web portal to all federal, state and local government web resources and services.